Location: Foligno
(42.9600°N, 12.7050°E)
Time: 11:15:28
(UTC+02:00)

ISS - Pass Details

Date: 11 May 2021
Orbit: 417 x 422 km, 51.6° (Epoch: 15 May)

Event Time Altitude Azimuth Distance (km) Brightness Sun altitude
Rises 05:13:28 0° 305° (NW) 2,371 -0.2 -6.7°
Reaches altitude 10° 05:15:36 10° 310° (NW) 1,505 -1.1 -6.4°
Maximum altitude 05:18:55 53° 28° (NNE) 523 -2.8 -5.9°
Drops below altitude 10° 05:22:14 10° 107° (ESE) 1,501 -0.3 -5.4°
Sets 05:24:21 0° 112° (ESE) 2,363 0.6 -5.0°
